Location: Antichan
(42.9728°N, 0.6667°E)
Time: 18:43:38
(UTC+00:00)

USA 234 - Pass Details

Date: 15 August 2020
Orbit: 1100 x 1108 km, 123.0° (Epoch: 17 September)

Event Time Altitude Azimuth Distance (km) Brightness Sun altitude
Exits shadow 22:16:20 59° 97° (E) 1,253 3.3 -28.4°
Maximum altitude 22:17:33 74° 37° (NE) 1,143 3.3 -28.5°
Drops below altitude 10° 22:24:04 10° 314° (NW) 2,967 6.4 -29.1°
Sets 22:26:34 0° 312° (NW) 3,928 7.2 -29.3°
